This is the latest recevied weather packets stored in our database for station/object OZ1IEP-5. If no packets are shown the sender has not sent any weather packets the latest 10 day(s).
| Time | Temp. | Humidity | Pressure | Rain* | Wind** | Luminosity | Snow |
|---|---|---|---|---|---|---|---|
| 1787763006 | 20° C | 70% | 1022.5 hPa | 0 mm | - | 65 W/m² | - |
| 1787762406 | 20° C | 69% | 1022.5 hPa | 0 mm | - | 49 W/m² | - |
| 1787761808 | 20.56° C | 68% | 1022.5 hPa | 0 mm | - | 49 W/m² | - |
| 1787761206 | 20.56° C | 68% | 1022.5 hPa | 0 mm | - | 47 W/m² | - |
| 1787760605 | 21.11° C | 65% | 1022.5 hPa | 0 mm | - | 49 W/m² | - |
| 1787760011 | 21.11° C | 62% | 1022.5 hPa | 0 mm | - | 51 W/m² | - |
| 1787759406 | 21.11° C | 60% | 1022.5 hPa | 0 mm | - | 54 W/m² | - |
| 1787758806 | 21.67° C | 57% | 1022.5 hPa | 0 mm | - | 179 W/m² | - |
| 1787758208 | 21.67° C | 55% | 1022.5 hPa | 0 mm | - | 116 W/m² | - |
| 1787757606 | 22.22° C | 55% | 1022.5 hPa | 0 mm | - | 153 W/m² | - |
| 1787757006 | 22.22° C | 53% | 1022.5 hPa | 0 mm | - | 65 W/m² | - |
| 1787756407 | 22.22° C | 53% | 1022.6 hPa | 0 mm | - | 77 W/m² | - |
| 1787755806 | 22.78° C | 52% | 1022.5 hPa | 0 mm | - | 109 W/m² | - |
| 1787755206 | 22.78° C | 52% | 1022.6 hPa | 0 mm | - | 392 W/m² | - |
| 1787754608 | 23.33° C | 50% | 1022.6 hPa | 0 mm | - | 492 W/m² | - |
| 1787754006 | 23.33° C | 51% | 1022.6 hPa | 0 mm | - | 520 W/m² | - |
| 1787753406 | 23.33° C | 52% | 1022.7 hPa | 0 mm | - | 492 W/m² | - |
| 1787752807 | 23.33° C | 52% | 1022.6 hPa | 0 mm | - | 561 W/m² | - |
| 1787752205 | 23.33° C | 51% | 1022.6 hPa | 0 mm | - | 571 W/m² | - |
| 1787751606 | 23.89° C | 52% | 1022.7 hPa | 0 mm | - | 585 W/m² | - |
| 1787751007 | 23.89° C | 51% | 1022.8 hPa | 0 mm | - | 626 W/m² | - |
| 1787750406 | 23.89° C | 49% | 1022.9 hPa | 0 mm | - | 647 W/m² | - |
| 1787749806 | 23.89° C | 51% | 1022.9 hPa | 0 mm | - | 679 W/m² | - |
| 1787749208 | 23.89° C | 51% | 1023 hPa | 0 mm | - | 670 W/m² | - |
| 1787748606 | 23.89° C | 50% | 1023 hPa | 0 mm | - | 698 W/m² | - |
* Rain latest hour (hover to see other rain measurements)
** Current wind speed in m/s (hover to see current wind gust speed)